RH
93 92 88 90 93 91 92 91 92 92 90 93 94 93 91 90 89 86 85 84 82 81 83 84 82 81 82 83 85 87 80 77 77 59 51 55 57 62 60 64 67 63 71 68 56 56 55 58 60 62 71 75 79 78 71 68 69 85 97 97 93 79 65 52 53 64 67 66 72 75 74 76 75 72 67 62 60 63 73 72 69 71 73 73 70 70 72 75
90 91 90 92 93 94 93 92 94 92 91 94 93 92 91 91 88 84 83 83 83 84 83 84 82 80 83 84 87 85 74 79 72 44 52 64 56 60 57 59 67 66 69 63 53 52 49 50 49 53 72 81 78 76 74 70 73 86 93 94 87 68 54 44 49 63 68 67 73 74 73 77 75 74 76 74 67 61 65 67 66 71 75 77 73 73 77 77
87 92 93 93 94 94 93 92 94 93 92 92 89 88 89 90 87 83 84 85 87 85 84 84 83 83 83 86 85 76 74 79 60 48 71 66 53 63 64 66 68 64 68 61 50 48 45 42 39 43 63 78 74 76 79 75 77 80 85 93 77 57 51 41 42 59 68 65 68 73 71 73 71 67 74 76 71 64 69 77 76 76 79 81 78 77 79 79
88 93 92 92 96 94 91 90 92 93 93 90 86 85 87 87 84 84 85 86 88 86 87 85 85 86 83 88 84 72 75 73 58 66 76 57 56 70 72 78 73 66 70 64 51 45 43 40 39 39 51 66 65 72 84 77 74 74 79 86 64 48 51 42 40 54 68 68 69 77 75 71 66 61 66 72 77 78 81 86 83 83 87 85 80 80 80 81
92 94 92 94 95 93 90 90 95 95 93 93 87 83 85 85 83 84 85 88 90 87 88 88 87 86 84 89 82 68 67 65 67 75 68 59 70 79 78 76 71 70 70 62 52 46 45 42 45 47 49 56 56 66 77 69 67 73 71 67 56 51 52 44 43 55 63 64 67 75 77 69 60 61 68 75 85 91 88 85 84 85 89 89 85 83 83 84
92 93 94 94 92 92 91 93 97 95 94 90 84 83 83 84 86 85 86 90 90 87 88 90 88 86 86 87 81 76 70 68 76 73 67 74 81 81 83 75 67 68 65 59 51 44 48 48 51 56 53 54 53 56 62 59 67 81 71 56 54 53 51 46 49 59 60 60 65 65 65 61 60 66 70 76 85 88 85 84 86 83 83 86 85 86 86 84
90 90 93 93 93 92 92 94 94 94 93 87 83 83 81 86 88 84 86 90 88 85 87 89 88 88 86 82 80 80 73 71 72 68 72 82 82 84 88 80 71 67 62 57 48 41 47 51 53 54 52 54 51 45 46 49 62 82 75 57 52 48 51 55 57 62 59 59 61 57 60 60 63 69 65 74 83 81 81 83 84 82 80 80 82 84 83 81
90 90 92 93 93 91 93 93 92 94 91 88 86 81 85 88 80 81 90 89 87 87 88 88 88 88 84 82 77 64 61 66 64 64 76 80 78 82 83 76 70 64 57 52 45 40 42 48 52 51 51 50 43 37 37 42 56 75 73 60 54 45 51 64 63 60 57 56 55 54 63 63 64 70 66 69 73 72 79 83 81 82 83 81 80 79 77 77
91 91 91 92 93 92 94 92 92 92 88 89 83 83 92 77 65 86 97 89 90 90 89 89 88 87 85 85 75 55 58 67 61 60 69 72 71 76 74 64 59 53 48 46 41 38 39 44 46 45 48 48 44 40 37 42 52 59 59 55 54 46 47 60 62 57 55 53 53 58 63 62 64 70 69 58 55 68 81 83 80 81 82 80 78 75 74 73
92 91 90 93 93 91 92 91 92 89 87 86 81 90 84 56 64 95 95 87 92 88 86 89 89 89 89 86 68 54 61 64 58 56 61 65 63 65 64 53 47 43 40 39 36 35 36 38 38 42 49 50 50 46 41 45 45 45 50 50 49 49 48 53 58 56 56 54 52 60 63 60 60 66 70 53 47 70 83 81 78 76 75 73 73 71 71 71
92 91 90 91 91 91 91 91 90 86 84 83 87 88 58 46 78 96 88 87 90 86 86 88 88 88 85 77 62 55 59 57 53 53 57 60 55 51 51 45 41 39 38 34 32 32 32 32 34 47 56 49 47 47 44 44 42 42 48 50 46 48 51 52 57 57 57 57 49 52 58 56 57 64 68 56 54 73 81 80 76 69 67 65 66 67 66 67
91 91 90 90 91 92 91 91 88 83 84 88 88 63 37 59 91 88 84 88 88 86 88 87 85 86 75 64 62 58 56 53 52 51 52 53 51 48 46 44 41 40 39 35 31 30 33 36 41 55 54 42 43 48 49 46 44 44 46 55 52 44 48 49 56 60 57 58 47 47 60 57 55 63 61 54 61 75 79 77 73 65 62 60 61 64 63 64
90 91 91 90 90 91 91 92 87 84 88 86 63 35 42 79 92 86 87 87 88 88 89 86 83 81 67 61 65 60 54 52 50 50 51 50 48 49 48 47 46 44 43 42 39 35 38 42 48 59 52 46 50 50 51 46 44 48 46 54 57 50 48 39 46 59 56 57 49 52 70 63 55 61 56 52 61 74 77 72 68 63 59 58 58 60 61 61
89 91 91 91 92 91 92 92 90 90 85 63 33 33 67 90 87 87 87 81 83 90 89 82 81 75 61 65 66 53 52 52 48 50 53 50 47 47 47 48 48 47 45 47 48 45 44 42 46 57 55 54 57 48 48 47 44 50 51 53 56 56 48 29 32 46 49 52 48 55 72 64 57 62 56 51 57 67 71 66 63 60 57 57 55 56 57 57
89 91 92 93 93 91 91 91 92 88 67 38 26 51 84 92 89 90 89 81 72 75 77 71 75 65 55 69 62 48 53 52 48 53 54 51 47 44 45 47 48 47 48 49 51 50 46 43 48 59 58 55 58 54 48 47 46 49 58 62 61 59 46 29 29 33 40 48 47 57 70 61 54 58 56 52 52 58 63 60 58 57 55 55 54 54 55 54
89 91 92 93 92 91 89 88 90 76 47 30 40 69 86 87 88 83 78 71 57 61 68 63 60 52 57 71 62 53 57 52 51 55 55 52 49 46 43 43 45 46 48 50 51 49 45 46 51 56 58 59 64 65 54 48 50 51 58 60 58 61 51 38 35 31 38 52 54 57 61 56 52 55 56 54 53 57 58 57 57 56 54 53 54 55 55 55
89 91 91 89 91 89 86 88 83 54 34 40 58 76 78 71 71 63 54 47 45 59 64 52 41 43 57 63 60 61 56 52 55 56 57 53 50 49 46 43 45 46 49 51 51 50 49 51 53 53 57 61 60 62 62 54 50 52 57 54 49 51 48 46 47 39 40 54 61 60 55 52 54 55 56 56 56 56 56 56 56 55 54 53 53 54 53 53
89 91 88 88 88 86 87 87 66 39 41 55 65 73 68 62 64 61 53 42 41 52 55 45 39 50 62 60 60 61 53 54 57 58 60 56 53 52 49 47 46 48 54 57 55 55 55 52 53 54 57 62 60 60 64 52 41 46 54 55 50 41 36 42 50 46 45 58 64 64 61 53 53 56 56 55 54 54 54 55 55 54 54 54 53 54 53 52
91 89 88 89 84 85 89 75 47 38 50 55 56 61 59 61 62 53 49 49 54 60 62 58 54 62 69 64 58 54 52 58 59 59 58 57 58 52 46 47 48 52 59 61 63 61 57 56 60 63 62 60 57 56 54 44 39 45 46 48 51 44 35 39 49 47 47 59 61 59 60 54 54 57 54 53 52 53 55 55 56 56 54 54 54 54 52 51
91 86 88 87 81 89 83 56 40 41 53 59 58 56 53 56 54 44 44 53 63 64 62 63 60 62 65 60 54 52 55 59 58 59 57 57 61 55 47 48 53 59 59 59 66 61 52 61 68 64 58 48 45 45 43 41 41 47 50 51 50 43 41 48 50 45 43 53 54 51 52 50 52 56 53 51 51 53 54 55 56 56 55 55 53 52 51 49
87 84 86 84 83 88 67 41 44 50 55 66 67 62 62 67 65 58 53 55 60 58 56 59 57 58 59 56 56 57 62 61 57 56 54 53 59 62 55 54 63 67 60 55 61 58 52 63 63 52 45 36 33 36 37 42 44 48 54 57 56 43 43 53 47 39 43 51 49 43 46 50 53 56 53 53 56 57 54 53 54 53 53 53 51 50 48 47
87 83 83 88 87 75 45 34 50 56 57 62 64 65 72 83 82 75 66 57 57 56 55 58 56 56 55 53 54 60 67 65 60 59 56 55 61 64 56 56 63 60 55 55 59 65 66 64 54 42 39 33 33 37 41 47 48 52 53 55 59 45 40 52 48 41 43 47 46 38 41 56 58 57 58 60 63 63 57 54 54 52 53 53 52 50 46 46
88 83 86 91 79 51 31 41 53 54 58 62 68 72 78 86 84 82 75 59 56 53 49 53 52 52 53 50 48 55 65 63 64 65 58 60 66 63 56 56 58 54 56 59 58 64 65 55 43 34 34 36 37 40 44 50 51 56 58 57 56 43 39 49 50 48 45 47 50 42 47 67 70 66 68 66 66 66 61 58 54 51 53 52 50 50 46 44
87 85 90 83 56 31 31 48 53 53 59 59 68 77 80 84 81 85 77 54 54 52 46 49 45 45 51 47 44 52 61 60 63 65 57 59 67 64 56 52 56 54 53 56 57 59 55 45 39 33 32 34 39 43 44 48 52 54 58 57 53 46 46 53 53 51 48 49 52 47 52 69 78 79 81 73 66 64 59 56 54 50 49 49 47 46 46 44
84 87 89 66 35 29 43 53 47 48 55 52 60 69 70 74 74 83 75 52 56 58 53 55 46 42 47 44 44 50 57 58 60 60 51 52 65 71 61 49 54 58 53 51 54 57 51 44 43 40 36 34 40 46 43 48 52 49 50 51 49 48 52 59 57 49 51 53 50 49 53 64 79 86 86 80 69 62 56 53 53 49 46 47 46 44 43 42
85 89 83 49 26 37 55 56 41 44 58 57 57 54 54 62 65 77 75 58 63 66 59 58 49 43 44 42 42 50 63 64 56 50 47 49 58 71 71 55 50 57 57 50 48 53 49 43 45 45 45 44 44 44 41 45 52 50 47 48 49 50 53 59 55 51 58 57 46 46 47 54 78 90 86 81 73 62 57 55 52 48 46 45 45 43 40 39
88 90 73 38 26 42 54 51 38 47 64 59 49 42 42 51 60 76 76 62 64 63 51 47 42 39 41 38 38 54 71 68 55 47 47 49 50 61 72 64 55 57 55 51 53 60 57 52 52 50 49 48 46 46 43 42 48 52 51 50 48 48 55 57 54 56 55 47 43 44 42 45 67 87 83 75 76 70 62 59 54 48 45 42 41 40 38 36
90 88 65 33 28 40 48 47 40 48 55 46 45 48 47 52 61 72 73 63 59 54 49 45 36 33 36 35 36 50 57 56 60 56 45 45 46 57 70 67 64 62 55 57 64 65 63 65 66 59 52 49 49 48 45 43 48 53 55 51 43 45 56 54 54 61 53 51 59 52 51 58 67 84 84 73 79 82 71 63 57 51 45 40 39 37 36 35
89 87 57 32 37 42 45 46 42 43 41 41 50 54 60 69 67 60 57 54 52 52 52 47 40 39 39 38 40 46 46 48 60 54 42 45 43 49 64 62 59 58 55 60 67 63 59 62 65 62 57 53 52 48 44 45 49 53 54 52 45 42 48 50 54 61 58 68 75 58 57 67 70 86 93 84 84 82 72 64 55 50 44 39 37 36 35 35
89 86 50 33 44 41 44 52 45 34 30 42 56 56 68 75 61 49 44 44 51 54 49 43 44 46 44 44 44 48 50 50 54 48 41 46 42 41 52 55 51 53 55 61 66 61 55 55 54 55 56 50 47 45 43 44 45 49 52 53 54 46 41 49 53 56 70 84 77 60 56 59 66 83 86 76 69 65 65 63 55 48 43 38 36 35 36 35
89 81 41 28 39 36 44 54 44 29 25 46 65 67 73 67 48 45 46 48 54 53 49 48 47 44 44 48 49 52 55 52 52 54 49 50 52 49 54 63 63 59 59 66 68 61 57 61 59 55 50 45 47 48 46 49 49 51 53 55 64 62 53 60 61 65 87 89 68 60 57 56 69 77 68 58 50 50 58 59 55 50 44 40 37 36 37 37
86 68 38 31 39 41 43 44 38 26 27 54 76 75 69 54 40 43 46 53 62 60 56 53 48 45 45 51 58 61 61 55 50 55 56 57 63 61 59 72 79 75 71 67 66 67 66 64 60 58 50 44 52 53 49 53 51 52 58 62 74 79 76 82 82 82 90 75 58 63 63 62 72 68 55 52 50 48 50 50 49 46 42 39 37 35 36 37
68 53 56 51 42 39 35 37 38 30 38 69 85 72 53 40 44 58 60 59 65 62 55 46 43 51 51 52 62 62 60 59 51 50 52 52 62 65 57 59 69 78 79 65 58 66 69 62 56 58 54 45 50 57 60 61 56 52 60 71 80 85 90 91 82 81 83 68 54 60 64 69 78 70 54 49 48 45 43 43 43 41 38 35 32 32 33 34
43 48 77 68 47 41 33 34 39 42 60 79 78 60 36 26 45 71 72 67 66 56 49 43 41 53 58 54 58 57 58 60 49 50 54 52 64 75 67 58 57 69 79 73 62 59 65 70 65 59 54 45 44 54 59 58 58 55 55 68 79 83 90 89 82 85 84 67 51 52 69 79 78 71 55 45 44 42 41 40 38 36 33 30 29 29 29 29
31 54 73 58 50 46 31 30 37 52 78 79 62 49 33 30 51 70 70 69 65 48 41 43 41 50 58 54 54 53 57 57 47 54 64 64 73 79 74 64 54 63 81 83 70 56 60 69 60 50 46 40 42 48 46 51 64 59 51 66 77 76 80 82 82 82 76 71 61 54 69 77 68 61 51 45 46 42 39 38 34 33 31 29 30 28 27 28
46 65 61 45 45 38 26 32 39 55 79 70 49 46 51 57 67 73 69 64 59 45 41 45 44 50 54 56 58 50 52 54 45 55 68 69 74 71 66 60 49 56 74 83 77 64 68 71 54 47 43 35 43 48 43 53 67 64 60 68 67 59 67 81 83 71 69 84 77 55 63 72 66 61 51 45 47 44 39 36 33 33 31 30 31 28 27 27
66 64 53 42 38 34 31 35 42 60 73 61 53 62 73 73 64 61 59 53 53 50 45 48 55 56 52 59 62 49 55 59 45 54 69 69 71 64 59 59 49 47 54 69 78 69 72 75 55 47 45 36 42 47 43 45 52 62 67 62 57 57 63 74 82 79 82 90 75 54 59 65 65 72 67 53 48 46 41 36 34 33 31 31 30 28 28 26
64 53 53 39 29 34 33 30 45 67 65 57 73 84 78 67 52 50 53 51 52 52 47 48 58 58 50 59 68 61 70 69 49 52 63 65 68 57 55 61 52 45 44 55 70 67 69 75 58 47 43 36 38 46 51 48 41 50 56 48 59 79 83 78 81 89 92 88 76 58 53 59 64 74 77 62 49 46 42 37 36 33 30 29 27 26 27 25
57 53 55 32 21 34 38 38 52 65 56 52 73 81 69 60 50 47 50 50 50 51 48 43 47 57 59 64 73 72 77 73 58 60 64 68 72 57 51 59 54 50 49 51 65 68 63 68 62 47 34 34 45 58 70 68 50 46 51 52 58 71 80 82 82 89 92 90 86 68 59 73 71 61 62 56 45 44 43 38 35 31 28 27 25 25 25 24
52 53 51 25 18 34 44 48 53 61 65 65 71 72 62 55 50 47 47 48 49 52 55 49 44 55 63 62 63 64 73 76 67 70 73 71 75 67 57 60 59 59 54 47 58 67 59 60 65 52 37 46 63 64 67 71 64 62 70 74 72 68 69 72 74 79 86 93 94 82 79 87 71 49 50 47 41 42 39 36 35 31 30 29 27 26 25 24
42 51 52 27 18 29 40 50 53 57 70 75 73 68 57 50 49 47 44 44 46 47 54 60 56 55 55 57 59 58 68 77 70 73 82 75 76 76 64 59 62 66 65 56 57 66 63 61 65 58 54 66 69 53 49 54 54 62 75 79 79 78 75 77 80 80 83 88 90 90 93 91 70 54 48 39 37 40 36 34 34 31 32 33 32 32 28 26
41 50 48 27 21 30 42 59 62 57 67 74 69 61 52 47 45 44 45 46 43 40 47 61 67 65 60 56 59 60 70 85 77 72 80 75 71 70 58 57 64 68 70 65 57 59 61 63 63 57 59 64 55 45 50 54 46 51 65 69 72 79 81 86 90 88 89 85 81 87 94 93 80 60 44 36 36 37 32 34 36 33 33 34 33 33 31 29
47 49 41 27 24 30 44 62 66 67 75 71 61 55 51 53 53 50 52 54 53 49 52 60 62 65 68 64 62 61 69 85 81 68 70 68 62 58 54 60 64 63 71 75 71 67 61 58 53 52 61 64 55 49 48 49 52 58 62 62 68 73 73 77 77 79 89 84 77 82 87 93 85 54 36 36 36 35 35 36 41 38 33 32 31 30 29 28
37 39 39 29 21 30 49 61 66 77 79 64 59 60 54 57 62 60 58 60 60 58 62 66 59 60 69 70 70 66 62 77 83 71 66 67 58 51 53 61 61 62 72 77 79 77 65 53 43 42 56 64 67 71 65 59 63 66 63 63 67 65 60 65 65 71 87 83 75 80 82 90 83 50 37 41 35 36 38 36 39 38 34 34 31 30 30 28
37 38 40 34 28 39 52 56 62 76 79 72 73 71 60 57 57 54 56 58 53 53 61 64 56 58 65 67 76 75 61 67 80 74 67 65 58 53 59 64 60 60 61 56 61 68 59 55 56 49 47 50 63 82 86 79 70 61 57 56 59 59 56 57 59 70 87 84 76 80 83 92 87 58 44 44 38 41 43 38 39 37 36 38 34 33 33 30
46 43 43 42 40 47 54 53 57 68 72 70 72 73 70 67 56 45 51 57 51 52 60 61 54 54 59 69 85 88 73 65 70 77 79 72 62 62 69 71 61 57 52 47 60 65 51 59 80 78 67 67 74 77 70 66 66 61 57 51 45 45 48 58 68 74 82 83 79 81 84 91 94 79 61 50 45 46 45 46 47 43 43 44 40 39 37 34
51 46 49 53 49 51 56 55 57 64 63 57 64 77 79 73 60 49 54 59 56 59 67 75 77 68 62 72 79 81 84 78 73 84 91 81 71 66 70 74 64 54 48 46 63 67 52 66 91 85 77 79 76 68 59 58 63 61 58 55 49 42 44 62 77 72 73 83 83 79 81 82 82 79 70 60 57 55 54 55 55 53 53 52 51 51 46 40
56 53 57 63 64 65 62 57 61 70 68 64 76 86 81 81 79 70 65 61 62 70 71 75 90 88 79 79 71 74 88 83 79 92 92 83 78 66 67 75 61 46 45 50 65 68 56 68 84 78 77 80 69 64 65 62 60 60 61 63 59 52 49 57 66 62 65 81 79 70 73 72 62 57 55 54 55 55 55 57 59 61 62 62 64 62 53 46
57 59 63 65 73 84 79 66 64 73 73 71 81 87 82 92 99 88 77 67 63 72 70 74 94 98 92 86 74 79 87 72 73 95 93 84 81 69 72 84 64 42 44 52 61 64 63 78 89 81 82 86 74 64 61 59 58 62 66 65 61 59 55 53 55 52 54 66 67 60 64 62 48 40 43 47 50 48 48 52 58 66 69 69 70 65 54 48
55 59 62 58 65 76 75 65 62 66 64 59 73 89 89 92 95 90 91 86 74 70 71 83 100 96 89 89 83 83 84 71 75 91 88 81 78 72 79 89 75 53 47 51 54 56 66 82 87 77 73 82 84 68 54 54 59 63 66 62 58 61 61 57 54 51 52 57 51 47 56 53 38 34 40 44 50 55 58 61 63 65 67 67 67 62 53 45
51 49 48 53 65 65 60 61 56 53 57 59 71 88 88 85 89 91 95 96 90 86 81 82 91 89 85 90 94 90 81 77 83 88 87 86 82 81 85 87 81 66 57 63 65 62 67 70 69 65 62 72 85 72 52 54 63 70 72 64 58 61 61 59 55 51 53 55 49 51 59 50 36 37 39 37 40 47 52 57 61 60 61 64 62 57 51 41
49 46 41 49 67 65 54 53 49 51 72 83 84 88 85 84 90 87 81 83 91 97 94 84 78 82 91 97 97 86 73 76 84 80 81 85 82 85 86 78 74 69 65 70 72 73 74 63 55 56 53 66 85 75 60 66 72 72 67 55 51 53 50 48 48 43 40 42 48 56 54 38 29 33 34 33 37 39 39 42 47 48 53 57 52 47 44 37
Wind_Speed
15 15 16 16 16 16 16 15 15 15 15 14 14 14 13 13 13 13 13 12 11 11 10 10 9 8 9 8 8 9 6 5 6 6 6 3 1 3 5 7 6 7 12 7 5 7 9 9 10 11 7 4 4 3 5 6 3 2 2 4 5 5 6 5 2 2 1 2 2 3 2 2 3 3 4 2 2 2 4 4 3 5 5 7 8 10 11 12
16 16 16 16 16 16 16 15 15 15 15 15 15 14 14 14 13 13 14 13 12 11 10 10 9 8 8 8 8 8 5 5 6 6 3 1 2 2 4 7 7 8 11 7 6 8 8 8 10 11 6 3 4 4 4 5 4 4 2 4 6 5 5 5 2 4 2 1 2 1 2 2 2 1 3 3 3 3 5 5 4 5 6 8 8 10 13 15
16 16 16 16 16 16 16 16 16 16 16 16 15 15 15 14 14 14 14 14 13 11 11 10 8 8 7 7 7 5 4 6 5 2 3 1 4 2 3 6 8 9 10 6 6 9 8 6 9 10 7 4 4 4 5 4 4 4 4 5 6 6 7 8 5 2 2 2 2 0 3 2 3 2 1 2 4 5 2 1 1 2 2 4 8 10 12 14
15 15 16 16 16 17 17 17 17 17 17 16 16 16 15 15 15 15 15 14 14 13 12 10 9 8 6 6 6 3 4 5 1 5 4 3 5 5 4 5 7 8 7 5 5 8 8 6 6 7 6 5 5 5 5 5 3 3 5 5 6 6 7 7 6 3 3 2 1 0 3 3 3 2 2 1 3 4 2 6 5 4 5 1 6 8 10 12
15 15 16 16 16 17 17 17 18 18 18 17 16 16 16 16 15 16 16 16 15 14 12 11 9 7 5 6 4 2 4 3 3 6 2 5 6 6 5 6 7 6 4 5 5 6 6 5 4 4 4 5 6 5 6 8 5 3 5 7 8 7 7 5 4 5 4 2 3 3 4 3 1 1 0 2 2 1 3 6 7 8 7 5 4 6 10 13
16 16 15 15 16 17 17 17 18 18 17 17 17 17 17 16 16 16 17 17 15 13 11 9 8 6 5 4 2 2 4 0 3 4 3 5 6 6 7 7 7 4 5 5 5 6 5 5 4 3 4 5 7 7 7 9 7 5 5 8 8 8 8 5 3 4 3 2 2 1 1 2 2 1 2 3 2 3 3 8 10 9 10 12 13 12 12 14
17 16 16 16 16 16 16 17 18 18 17 17 17 17 17 17 17 18 17 15 13 11 9 7 5 5 5 4 3 4 4 3 4 2 4 7 5 5 6 6 5 3 5 6 7 7 5 5 6 4 4 5 7 8 8 8 8 6 6 7 8 8 7 3 3 3 3 3 3 3 3 3 3 2 2 4 5 5 5 10 11 11 13 17 16 14 13 14
17 16 16 16 16 17 16 17 18 18 18 17 18 18 17 17 17 17 14 13 12 10 7 5 4 6 7 6 4 3 2 4 5 2 4 7 5 2 4 5 5 4 6 8 8 6 5 6 6 4 5 5 6 7 8 7 7 8 9 7 7 9 3 4 2 1 1 1 2 3 2 4 3 3 2 3 6 5 7 10 11 11 13 15 15 14 13 13
17 16 16 16 16 17 16 17 18 18 18 18 18 18 18 18 16 12 11 12 11 7 4 4 5 8 9 6 3 2 2 4 4 3 2 4 4 2 2 3 4 5 7 8 9 8 5 5 7 6 5 4 6 7 6 6 4 5 8 8 7 10 4 5 2 2 2 1 1 2 3 3 1 2 1 3 7 6 9 10 10 12 12 12 12 13 13 13
16 16 16 16 17 17 17 18 18 18 18 18 18 18 19 17 10 8 10 11 8 5 2 4 7 10 9 5 3 1 4 5 3 3 1 2 2 2 2 2 2 4 7 6 8 9 6 5 6 4 4 4 5 6 5 5 2 2 5 8 7 8 4 4 3 4 3 2 3 3 4 2 3 2 1 4 6 8 11 10 10 12 12 12 11 11 12 13
17 16 16 17 17 17 18 18 18 18 18 19 18 18 18 13 5 8 10 8 6 3 1 6 10 12 8 4 2 1 5 5 3 4 1 1 1 1 2 1 1 4 5 5 6 7 8 7 5 1 1 2 4 4 4 5 5 4 6 8 7 6 5 5 6 5 4 3 3 2 4 3 3 2 2 4 6 10 12 10 11 12 11 11 11 11 10 12
17 17 17 18 18 18 18 18 18 18 19 19 18 18 15 6 3 8 7 6 6 3 4 8 11 10 5 2 2 2 4 3 3 4 2 1 1 1 1 1 2 3 4 4 4 6 6 4 5 3 1 1 2 2 2 5 6 5 5 7 7 7 7 7 8 7 6 4 3 1 3 5 5 3 5 6 7 12 12 10 11 10 11 11 10 10 9 12
17 17 18 18 19 18 18 19 18 19 20 19 18 17 9 1 4 6 3 3 4 5 6 9 9 4 2 1 2 2 3 3 4 5 3 2 0 0 1 1 2 3 5 5 3 3 3 5 6 5 2 2 1 1 3 3 3 4 4 4 5 6 6 7 8 9 9 6 5 3 2 2 1 1 4 2 6 13 12 10 10 9 10 9 9 10 10 13
16 17 18 19 19 19 19 19 19 20 20 18 18 12 1 4 5 5 1 2 3 4 6 8 6 2 1 3 2 2 5 3 4 6 5 4 1 2 1 1 0 2 2 4 6 5 1 2 4 4 3 3 2 3 3 2 1 3 4 3 3 4 3 6 8 10 9 6 7 5 3 2 4 4 4 4 3 9 11 11 10 8 9 8 9 10 10 12
17 17 18 19 19 20 20 20 20 20 19 18 14 3 5 5 4 3 2 2 1 5 6 5 3 1 1 3 2 5 6 3 5 7 6 6 4 1 2 2 1 0 0 1 3 3 1 1 2 2 2 1 1 3 3 2 2 3 3 3 4 4 4 5 7 10 8 4 6 6 3 3 4 5 4 5 3 5 11 11 10 9 9 8 8 9 9 10
17 17 18 19 19 20 20 20 21 19 18 16 6 4 5 3 2 2 2 1 3 7 5 3 2 2 1 4 3 4 6 4 5 6 5 6 6 4 3 2 2 2 1 1 0 0 1 2 1 1 1 1 1 3 3 3 3 3 3 3 4 5 5 4 2 7 8 4 6 8 4 1 4 4 5 4 4 10 11 10 10 9 9 9 7 8 8 8
17 18 19 19 20 21 20 20 20 18 16 9 3 6 5 6 6 5 4 4 7 6 2 2 0 1 2 3 3 3 4 6 4 5 6 5 4 4 2 1 3 3 3 2 2 2 2 2 1 1 1 1 2 3 2 3 4 4 4 4 4 5 5 2 1 3 7 6 6 9 5 2 5 4 6 7 9 12 10 9 9 8 8 8 7 7 8 8
17 18 19 20 21 21 20 20 19 17 12 3 6 7 8 9 9 8 7 3 4 2 1 3 3 1 2 2 2 3 3 4 4 5 5 4 4 3 3 2 2 4 4 3 2 3 3 2 2 1 2 3 3 4 4 4 2 1 3 3 5 6 7 4 3 4 6 7 6 8 7 4 6 5 6 8 9 10 9 9 8 8 8 7 7 8 8 9
16 18 18 19 20 20 20 19 17 13 6 6 7 8 8 6 5 8 10 7 1 1 1 3 3 1 3 4 3 4 2 1 3 6 6 5 4 3 2 2 2 4 3 2 3 4 3 1 3 2 3 4 5 6 7 7 4 3 2 2 3 4 5 2 4 5 7 6 6 7 7 6 7 5 6 6 8 10 9 8 7 7 7 7 7 7 8 9
17 18 18 19 19 19 18 16 15 10 3 5 4 3 2 1 3 4 10 10 5 3 4 4 4 4 4 4 4 4 2 1 2 6 7 5 6 4 2 2 2 2 3 3 4 4 3 3 3 3 4 6 8 10 9 9 7 5 4 4 5 3 2 2 4 3 4 4 5 7 7 6 9 7 6 6 7 9 8 8 7 7 7 7 7 8 8 8
17 18 18 19 18 18 15 12 14 10 2 2 3 3 1 1 1 2 3 7 6 5 6 5 5 7 4 4 4 4 1 1 5 7 8 7 6 3 2 3 2 2 5 3 4 2 1 3 5 5 7 9 8 8 8 9 8 6 4 4 5 5 2 3 3 2 1 1 3 7 7 5 8 7 6 6 7 7 6 7 8 7 8 6 7 8 8 7
16 17 18 18 18 16 12 10 14 12 4 3 4 3 3 2 2 1 1 5 5 3 4 3 4 6 4 4 5 6 2 1 6 7 11 11 3 1 1 3 3 3 3 3 2 2 1 5 6 6 6 6 3 2 2 4 5 4 3 3 4 4 1 2 2 1 1 1 2 5 3 4 7 6 6 7 7 6 7 8 8 8 8 7 7 8 7 8
16 18 19 18 17 14 9 9 13 13 8 8 8 6 4 2 2 1 2 3 4 2 3 3 4 6 4 4 6 8 2 2 4 6 12 11 2 1 2 2 4 3 3 2 3 2 2 2 3 3 4 2 2 3 4 4 3 2 3 3 4 4 3 2 1 1 2 1 0 4 2 4 5 5 6 6 6 7 7 9 9 8 8 8 8 7 7 8
16 18 18 17 16 11 6 9 10 9 10 12 12 7 3 2 2 2 3 2 4 3 3 3 4 5 3 2 7 6 4 5 5 5 10 9 3 3 2 2 3 3 2 3 5 4 2 2 4 4 5 4 3 4 3 2 2 3 5 5 5 5 2 1 2 2 4 3 1 2 3 2 5 5 5 5 6 7 7 8 9 8 8 8 8 8 8 9
16 18 18 16 14 9 5 7 7 5 6 8 9 6 4 2 2 2 2 2 3 2 2 1 2 3 2 3 8 5 3 4 5 5 8 8 5 3 2 2 2 1 2 3 4 4 4 3 4 4 4 4 3 3 3 2 3 3 4 4 6 8 2 5 4 2 2 3 2 3 2 3 5 6 5 5 6 7 6 7 8 7 7 7 7 8 8 8
16 18 17 14 12 8 4 4 5 5 3 4 5 6 4 1 1 2 2 1 2 2 1 1 1 2 3 4 7 3 1 2 4 5 8 9 4 2 2 1 1 1 2 2 1 1 2 4 3 3 3 4 1 2 3 1 3 2 2 5 4 6 5 7 5 1 1 3 2 6 5 3 2 4 4 5 5 6 7 7 7 6 7 7 7 7 7 7
17 18 15 12 12 8 4 4 5 5 2 1 6 7 3 0 2 3 2 2 1 0 1 1 1 3 3 5 5 0 2 0 1 6 8 8 5 3 1 3 1 1 2 1 1 0 3 5 4 3 1 0 0 1 5 6 3 1 4 7 7 4 0 3 4 3 2 2 2 4 5 4 3 2 4 6 6 5 6 6 6 6 7 8 8 7 8 8
16 17 13 10 10 9 6 6 5 4 2 4 7 4 1 2 1 1 1 2 1 1 2 2 1 3 2 5 7 3 2 1 0 5 6 6 7 2 2 4 3 3 3 1 1 0 3 5 5 4 1 1 1 1 4 6 2 1 5 7 5 4 4 3 0 2 3 3 3 5 5 4 3 2 3 4 5 4 5 6 6 7 7 7 8 8 8 8
15 14 10 8 7 7 6 5 4 3 4 6 4 2 4 3 2 1 1 2 0 2 1 1 1 3 2 2 8 7 3 3 2 3 3 4 9 4 1 3 5 4 3 1 2 1 2 4 4 4 3 1 3 4 3 4 1 1 6 7 4 2 2 3 1 2 2 4 7 6 6 4 3 2 2 3 1 3 5 7 6 7 7 7 8 8 7 7
14 12 8 8 7 6 4 2 3 5 6 4 2 5 3 2 2 1 1 2 1 2 1 2 1 3 4 0 4 7 5 5 3 3 3 5 9 8 3 2 4 3 1 2 3 2 1 1 3 4 4 3 4 5 3 1 2 2 3 3 3 3 1 1 1 1 2 6 9 7 7 5 3 1 2 2 4 3 5 8 6 7 8 8 8 7 7 7
12 9 6 9 9 7 4 2 4 7 5 1 4 2 1 2 1 1 2 1 2 1 1 3 3 3 4 3 2 5 5 5 5 4 5 6 8 9 5 3 4 2 2 2 2 2 2 2 2 3 4 4 4 4 1 1 1 1 1 1 2 2 2 0 1 2 3 7 6 6 8 7 5 1 4 4 7 8 6 8 8 9 9 8 8 8 7 7
10 5 5 9 8 6 5 4 5 6 2 3 2 2 2 1 1 1 0 1 0 2 1 2 3 3 3 4 4 4 3 3 5 4 4 4 5 7 6 4 4 0 2 0 1 3 2 3 3 1 4 7 6 3 1 2 1 1 2 1 1 1 1 1 2 3 5 6 2 4 9 6 3 2 6 7 8 9 8 8 8 9 9 8 8 8 7 6
7 1 4 8 7 6 7 5 4 3 1 2 1 3 1 1 1 1 2 1 1 1 2 1 2 3 1 2 3 3 1 2 4 3 2 3 6 6 7 8 6 2 1 2 1 1 1 2 5 4 2 6 6 2 1 2 2 1 1 1 1 2 1 3 4 3 4 4 1 3 7 4 1 4 6 7 7 8 8 8 8 8 8 8 9 8 8 7
3 2 2 6 8 8 9 5 2 1 3 2 3 1 2 1 1 0 1 2 1 1 1 1 1 3 4 2 0 2 1 2 4 4 3 3 4 3 5 9 10 4 2 2 2 1 1 0 4 4 3 4 5 4 2 2 3 3 1 1 0 1 1 2 2 1 1 2 1 3 3 2 0 2 4 6 7 7 7 7 7 8 8 8 8 8 8 8
3 5 2 3 6 8 9 5 1 4 3 3 3 1 1 1 1 1 1 1 0 2 2 0 2 1 3 2 0 2 1 1 2 5 5 4 4 3 3 6 9 7 2 1 2 2 1 2 1 2 2 4 4 3 3 3 3 3 2 0 1 2 1 2 1 1 1 2 2 2 1 2 2 4 4 5 6 6 6 7 7 8 8 8 8 8 8 8
5 3 3 2 5 8 8 4 3 5 3 4 2 1 0 1 1 2 1 0 1 1 2 2 1 0 2 2 1 1 2 2 2 3 4 3 4 4 4 4 7 7 4 2 2 1 1 1 1 0 2 5 4 2 4 3 1 2 2 1 2 1 1 2 4 2 1 1 2 3 2 2 3 3 3 5 6 6 6 7 8 8 8 8 7 7 7 7
3 1 2 3 7 9 8 2 4 4 4 3 1 1 1 1 2 2 2 1 0 1 1 2 0 0 2 2 2 2 4 3 1 1 1 2 2 4 4 3 5 6 5 3 1 1 1 0 2 1 2 4 3 2 3 6 4 1 1 3 3 2 1 1 3 0 1 4 3 4 5 3 3 1 1 3 5 6 6 7 8 8 8 8 7 6 6 6
2 2 1 4 9 9 6 2 3 3 3 0 4 2 1 1 2 3 3 2 0 1 2 1 0 0 0 1 2 3 5 2 1 1 2 1 1 4 3 3 4 6 7 5 1 1 2 0 1 3 1 3 4 2 1 6 8 3 1 4 3 1 1 1 1 1 3 5 3 4 6 2 2 1 1 4 6 7 6 6 7 7 8 7 7 6 6 5
1 3 1 6 9 7 5 3 2 3 2 1 4 3 1 2 4 4 4 3 2 2 2 1 2 1 2 1 2 1 4 3 2 2 2 1 1 3 4 3 4 7 9 6 2 2 2 1 1 3 4 1 3 4 2 4 8 6 4 4 3 1 1 1 0 1 1 3 3 4 4 0 3 2 2 3 8 7 6 6 5 7 7 6 6 6 5 5
1 2 1 8 7 4 6 5 2 2 2 1 2 2 2 3 4 5 5 4 2 2 2 2 2 2 2 2 2 2 3 4 3 2 2 2 1 2 5 4 5 8 10 6 3 3 3 1 2 2 5 2 2 4 3 3 5 5 4 4 4 3 1 1 1 0 1 2 3 3 3 0 1 3 4 3 8 7 5 6 5 5 6 5 5 5 4 5
1 2 2 9 4 0 5 5 3 4 3 3 3 2 3 3 4 5 6 6 3 2 3 4 3 3 3 2 2 2 2 3 3 3 2 2 2 2 3 4 5 6 6 3 3 4 3 2 1 3 4 3 3 2 3 4 4 4 3 3 3 3 2 2 2 1 3 2 1 2 3 1 1 3 4 3 6 5 6 7 6 5 6 5 5 5 5 5
1 1 3 10 5 1 3 4 4 4 3 2 3 2 3 4 4 4 6 6 4 3 4 4 4 5 3 3 4 3 3 3 2 3 2 3 4 3 3 6 6 4 2 2 3 3 2 1 1 1 3 4 4 2 3 4 4 5 5 4 3 3 3 1 2 1 3 2 1 0 3 1 1 4 4 5 5 5 7 7 6 5 6 5 5 5 5 4
1 1 4 10 5 1 3 4 3 4 3 1 2 4 5 4 4 5 5 5 4 3 4 4 3 4 3 3 4 3 3 3 3 3 4 3 4 4 5 8 7 3 2 2 2 2 2 0 1 1 3 4 4 2 2 3 2 5 5 5 4 3 2 2 2 1 1 3 1 1 3 1 2 4 2 5 6 6 6 6 6 5 5 5 5 5 4 4
2 2 3 9 7 2 1 2 3 3 3 2 3 5 5 4 5 5 4 4 4 2 3 3 3 3 2 2 4 3 1 2 3 3 4 4 2 4 6 9 8 5 3 2 2 3 1 1 1 1 1 1 1 1 2 2 2 3 2 2 4 4 2 1 1 1 1 3 3 3 3 1 0 3 2 3 3 4 4 4 5 4 4 4 4 4 4 4
2 2 1 8 12 6 2 1 3 6 5 4 5 4 3 4 4 4 5 5 4 3 3 2 2 4 4 3 5 5 4 3 1 1 3 4 3 3 6 9 8 5 4 4 5 3 1 2 2 1 2 2 1 2 0 2 3 1 1 1 2 3 1 0 1 1 1 1 1 3 3 1 2 4 1 2 2 3 4 4 3 3 4 5 4 4 4 4
0 0 2 3 7 6 4 3 4 7 6 5 4 2 2 3 3 3 5 4 5 5 4 3 3 4 4 4 5 5 6 5 4 3 3 3 3 2 3 6 7 5 4 6 7 3 1 2 3 3 3 1 2 2 1 2 2 2 3 3 3 1 2 3 2 1 2 2 4 3 1 3 2 2 1 2 2 3 4 4 4 3 4 5 4 4 4 4
1 1 1 1 2 4 4 4 4 4 4 3 2 1 2 4 3 2 5 3 3 4 4 4 4 3 3 4 4 3 4 5 6 4 2 2 3 1 3 3 5 6 5 6 7 3 1 2 3 2 3 3 2 1 2 2 1 4 4 5 4 4 2 2 3 4 0 3 5 3 3 5 2 1 3 4 4 5 5 6 6 6 5 5 5 5 5 4
1 1 1 1 1 2 2 3 4 5 6 5 2 2 3 4 2 2 3 2 2 3 2 3 4 5 3 2 3 3 2 3 5 2 0 1 2 0 3 4 4 5 5 4 5 3 2 0 2 1 2 1 1 1 1 1 2 4 5 6 5 5 5 4 6 6 3 4 7 5 7 10 7 6 7 6 6 7 7 7 7 5 5 5 5 5 4 3
2 3 1 1 1 2 2 4 6 7 7 5 3 2 3 4 3 2 2 2 2 4 2 3 2 4 4 3 2 4 3 2 2 1 1 2 1 1 1 1 2 4 4 3 3 2 1 2 1 1 1 3 3 1 1 2 4 6 6 6 6 6 8 8 7 7 8 9 10 10 13 13 9 8 8 6 4 5 5 5 6 7 6 5 5 4 4 4
1 2 2 2 4 3 2 3 5 5 4 3 2 1 2 4 4 2 2 3 2 2 2 5 5 2 4 4 5 4 1 1 3 4 3 4 1 0 1 1 1 3 3 3 3 3 2 3 2 1 0 2 3 3 3 3 4 7 8 8 8 7 8 9 9 8 8 10 11 11 13 12 6 3 3 4 4 4 5 3 4 6 6 5 5 4 4 4
3 3 5 5 4 2 1 1 1 2 2 2 1 2 2 3 4 4 3 3 2 1 2 6 8 3 6 8 9 7 3 4 6 6 4 5 3 1 2 0 1 2 2 2 2 3 3 2 1 1 1 2 2 3 3 4 5 8 11 11 10 9 7 7 6 6 7 8 9 9 9 7 2 2 1 3 3 3 3 2 1 3 6 6 5 5 4 4
5 3 2 3 4 1 0 0 1 1 1 2 2 2 3 4 5 4 4 2 3 3 2 4 7 5 6 8 8 7 6 6 7 6 5 5 5 5 4 3 3 3 2 1 1 2 2 1 1 2 1 2 2 3 4 4 5 5 7 8 8 9 8 7 6 7 8 8 6 6 6 4 1 0 3 3 1 2 2 0 1 2 4 6 5 4 4 4
Wind_Direction
346 344 342 340 341 340 338 336 332 333 335 334 335 334 332 330 327 326 324 319 317 315 315 314 313 314 312 314 314 315 314 312 299 239 224 244 210 134 152 174 195 185 162 173 212 187 189 208 209 190 177 175 195 208 193 201 220 197 198 228 232 234 238 254 268 78 349 357 36 337 8 312 311 15 356 351 266 204 179 220 149 99 92 95 93 91 84 77
344 342 340 339 339 338 338 336 333 334 333 332 332 331 330 328 326 324 322 319 316 313 312 309 309 311 309 310 311 307 304 300 278 238 198 213 236 193 180 185 194 180 167 189 204 192 199 202 205 192 180 203 200 195 193 183 193 211 222 231 232 239 252 263 254 112 115 299 125 294 342 1 322 333 336 314 256 237 214 219 189 161 133 120 112 97 87 77
340 338 340 340 338 336 337 334 333 335 333 332 332 330 329 326 325 322 320 317 314 310 307 304 302 302 305 305 302 297 304 295 257 207 80 148 216 180 167 181 184 174 177 215 209 202 222 215 216 207 188 211 213 196 203 185 180 209 223 238 239 245 263 272 274 114 122 259 152 267 324 303 279 229 207 294 287 267 244 39 292 222 129 135 132 106 93 82
340 338 339 338 337 337 335 331 330 332 332 332 331 330 329 326 323 321 319 315 311 307 301 297 294 293 297 296 290 279 284 278 186 69 62 159 169 151 155 172 185 184 193 261 248 221 241 243 245 233 208 217 218 199 204 199 177 196 212 236 256 258 264 273 288 36 84 266 230 215 286 271 274 261 205 327 329 296 24 44 13 11 17 20 143 125 105 81
339 338 337 335 338 339 334 330 330 330 331 331 330 330 328 326 323 320 317 313 309 305 297 289 284 279 279 279 272 252 258 248 84 49 66 167 151 148 164 183 194 199 221 268 260 235 242 243 253 250 237 237 225 208 210 211 206 230 229 237 257 268 275 291 325 36 74 235 245 207 242 270 290 298 329 32 19 333 23 43 34 32 29 30 89 97 83 66
338 337 336 336 337 338 335 333 331 330 330 330 329 328 328 326 323 319 316 315 313 308 299 287 275 259 254 256 219 228 250 84 50 29 74 146 150 152 166 186 192 206 247 254 245 226 222 229 222 217 230 242 238 229 220 209 205 237 249 242 248 256 266 287 1 35 33 310 302 305 292 314 303 308 80 81 117 138 59 62 58 41 41 49 56 51 55 57
338 335 335 337 338 337 336 334 332 332 331 330 329 327 327 325 322 320 318 319 317 312 300 284 264 230 214 210 187 228 243 68 52 40 91 118 130 154 170 187 197 219 253 240 229 215 200 215 211 209 218 234 247 240 237 218 197 217 250 256 256 256 262 317 40 54 11 342 7 13 352 318 301 321 66 103 123 122 77 75 74 56 49 51 54 46 44 49
337 335 336 337 337 336 336 335 333 332 331 330 328 327 326 324 323 322 324 324 317 310 295 269 236 196 179 182 195 219 201 68 44 41 98 110 100 125 171 194 211 231 244 230 227 213 198 212 214 221 218 225 253 245 246 242 205 212 241 256 269 266 247 77 62 104 68 316 21 5 314 294 318 21 342 116 114 112 89 82 78 67 57 52 51 45 41 41
337 336 336 336 337 336 336 334 333 331 331 330 327 327 326 325 327 330 333 328 319 312 288 236 198 178 172 183 232 229 125 60 27 24 94 123 103 117 178 207 208 223 236 230 232 224 207 214 215 230 246 252 266 260 256 254 215 205 243 248 257 265 237 115 155 190 170 174 75 329 289 286 33 62 315 118 118 117 96 85 78 72 64 58 53 47 43 39
336 336 337 338 338 336 335 333 333 332 330 329 328 326 325 326 333 360 352 335 330 326 281 186 173 166 169 195 245 214 79 55 28 21 39 135 105 173 229 250 205 222 234 226 232 232 218 224 223 234 285 294 282 274 261 259 256 34 308 272 258 273 266 154 184 206 192 194 197 227 260 262 116 129 264 114 128 123 100 88 82 77 69 65 60 53 48 43
337 337 337 337 337 335 334 334 333 333 331 329 327 325 325 327 351 25 4 345 357 355 127 152 162 157 165 213 255 97 56 41 30 28 19 119 69 242 256 303 231 229 241 231 231 241 238 247 269 293 331 305 299 283 264 282 301 343 330 298 281 287 280 208 206 226 212 218 220 217 274 256 158 191 201 139 140 121 105 97 88 81 80 73 65 60 51 47
338 338 336 336 337 335 335 335 334 333 331 329 326 324 325 331 41 39 15 354 16 42 114 139 153 152 176 220 47 55 53 42 43 42 39 75 28 288 303 324 280 257 267 258 230 246 262 322 333 287 222 311 290 266 293 323 317 312 311 298 284 276 265 226 208 218 216 210 192 127 298 256 216 202 148 154 154 118 108 102 92 86 86 80 71 67 56 51
338 337 337 336 335 335 336 335 334 333 331 329 326 324 328 41 69 50 24 2 51 91 117 136 146 156 222 111 55 39 80 64 45 45 39 32 154 179 316 298 304 296 296 303 322 287 284 7 342 281 285 303 306 317 299 317 313 291 275 267 285 283 265 239 213 206 209 198 168 158 268 252 202 65 83 162 166 125 113 106 98 91 87 84 77 71 63 54
338 336 336 335 335 336 336 335 334 332 330 328 326 325 19 103 69 62 49 23 85 130 134 141 145 192 229 78 53 81 98 110 52 35 21 3 291 176 207 231 307 317 300 309 340 4 12 358 325 303 300 274 325 341 281 251 215 255 248 227 248 266 256 235 218 206 207 187 154 160 243 219 72 43 13 322 209 137 118 108 99 92 86 84 81 75 68 58
338 336 336 335 336 336 335 336 335 332 330 330 329 338 127 106 71 89 118 26 52 144 133 132 142 221 131 93 104 89 84 97 47 25 11 3 340 236 156 153 134 30 45 320 344 19 48 304 281 276 283 254 327 309 267 224 212 213 228 225 202 226 270 253 212 197 197 181 157 166 228 213 93 48 347 316 291 109 103 100 92 87 82 77 75 73 70 61
338 337 337 335 336 336 337 338 334 333 334 335 341 133 133 112 92 129 140 60 96 118 113 127 180 255 85 101 128 98 62 42 30 16 12 5 349 8 76 124 143 144 128 70 45 102 195 228 234 257 299 66 190 260 276 251 219 200 215 240 205 199 240 256 191 178 178 165 175 187 214 166 101 49 354 344 68 86 90 89 83 82 78 72 68 64 63 57
339 339 338 338 338 338 339 339 336 337 341 346 107 129 117 99 85 71 70 96 109 100 59 50 142 255 65 89 117 89 42 31 24 16 18 9 3 12 0 208 155 137 141 124 137 170 177 200 187 39 257 228 199 202 249 248 207 197 202 235 253 228 229 219 113 184 178 163 176 195 210 92 104 78 28 40 78 88 87 83 80 77 73 71 68 63 59 52
340 340 339 340 339 339 341 339 338 344 355 43 131 125 114 95 78 66 52 83 128 114 75 41 0 254 94 83 66 36 20 26 29 26 18 11 14 353 316 305 143 148 157 143 154 173 164 197 191 186 219 206 214 199 206 227 212 205 195 216 246 246 251 227 152 177 169 166 181 193 204 137 110 101 63 61 77 85 85 84 80 73 71 68 64 63 57 52
339 341 341 340 340 340 340 339 343 353 27 103 115 115 111 92 87 73 44 34 69 127 110 26 351 154 94 76 49 28 36 31 33 32 20 12 358 315 275 304 225 177 182 163 171 184 160 181 199 212 225 202 211 213 220 247 292 355 356 290 259 242 255 227 123 158 162 173 198 202 209 167 129 122 102 88 86 90 90 85 79 72 67 64 62 62 58 55
340 342 341 341 341 341 340 343 353 4 77 104 90 128 116 103 155 88 39 38 49 59 64 37 44 97 77 52 27 3 11 256 50 40 22 358 327 301 210 226 211 197 234 175 151 180 169 183 214 210 219 217 215 215 228 256 287 331 346 325 306 296 319 62 101 163 173 187 203 209 222 176 137 131 118 105 96 95 95 90 84 77 69 63 62 61 58 58
342 342 341 342 342 340 342 353 9 20 83 69 347 272 269 17 152 116 59 64 58 43 69 66 67 86 68 35 18 348 336 102 63 42 12 347 310 288 169 188 186 198 236 197 124 110 177 210 232 226 229 235 231 223 225 239 264 298 315 326 310 298 340 64 107 140 98 74 207 215 224 167 125 120 108 94 85 79 82 91 88 82 76 65 59 58 55 54
342 342 343 343 342 343 349 9 23 28 44 55 25 38 78 25 23 86 121 94 71 17 78 102 89 87 70 62 35 347 292 127 66 41 6 352 307 239 119 177 213 206 195 197 126 91 223 237 243 247 249 247 259 325 287 250 256 283 287 280 283 278 291 67 79 130 102 88 245 258 240 134 109 101 88 77 79 71 64 75 78 78 75 63 57 53 48 48
342 343 344 344 346 349 2 26 27 26 41 65 55 57 71 12 13 353 295 103 89 31 68 72 70 65 56 73 21 351 337 24 38 34 2 349 317 336 344 206 245 232 142 189 204 167 199 227 273 303 348 336 336 355 343 333 315 285 276 264 266 273 262 261 306 317 324 67 52 314 319 128 112 89 81 75 86 87 76 74 73 73 76 70 63 55 49 48
344 345 346 347 350 355 17 37 32 31 49 64 59 52 43 25 56 338 306 122 97 69 70 58 66 52 45 40 348 352 77 45 18 16 2 353 347 347 309 269 283 244 174 215 231 252 271 44 359 356 29 17 355 335 304 301 305 252 233 242 246 258 286 57 135 73 2 350 64 4 324 199 170 153 118 102 106 103 93 87 78 72 78 75 68 61 54 52
345 347 349 351 357 4 23 34 35 37 45 55 49 29 0 27 87 350 310 145 106 98 109 131 113 44 22 359 343 352 100 63 28 2 4 7 351 330 321 319 319 275 230 221 215 262 299 27 355 353 34 28 22 319 273 206 257 256 228 250 248 239 196 97 130 115 20 286 206 163 268 266 176 160 139 134 131 115 99 89 82 74 72 69 64 59 53 53
347 349 352 359 5 10 22 32 35 34 50 57 14 341 332 341 88 13 309 172 109 125 139 152 142 33 19 345 340 345 118 60 41 18 10 9 352 250 333 323 184 21 299 250 171 233 347 48 23 19 37 22 25 273 331 346 243 248 303 327 308 243 187 135 151 162 196 255 215 175 214 272 171 136 127 138 127 111 101 87 83 76 67 66 62 58 52 48
349 350 353 6 14 17 14 356 5 13 43 26 330 317 318 35 89 37 303 213 164 299 54 66 14 31 35 351 337 138 116 355 50 30 15 6 354 232 305 16 158 35 347 330 60 337 359 34 38 39 83 53 264 245 2 354 277 224 335 346 8 357 332 144 172 203 240 298 315 202 218 263 251 143 130 136 123 117 113 94 87 81 74 74 67 62 59 51
351 350 353 10 24 36 25 350 355 18 344 310 314 311 101 114 115 25 288 222 246 329 32 60 24 19 27 12 16 59 87 17 357 7 358 16 15 263 215 29 9 13 17 359 76 296 5 31 21 4 34 158 352 320 355 351 333 81 350 345 11 20 10 7 257 225 271 288 262 225 211 252 255 141 134 145 138 151 136 111 103 91 79 80 73 67 63 56
350 347 353 10 25 37 26 6 15 21 330 313 318 113 128 144 227 275 272 243 204 66 37 35 43 355 328 29 35 38 40 30 22 335 328 33 21 356 149 24 350 354 10 67 93 71 55 38 10 8 21 18 342 320 330 351 342 26 353 344 349 6 17 5 306 228 267 255 243 221 187 217 248 154 157 164 204 214 147 111 94 88 78 75 73 67 61 56
350 346 357 19 26 14 354 359 10 351 333 332 93 120 151 205 237 200 233 247 91 85 345 14 0 307 316 154 48 25 31 36 4 334 4 34 19 15 45 34 3 348 296 131 87 70 111 39 47 52 18 325 308 299 268 233 294 324 6 351 330 302 240 183 244 230 252 248 241 214 181 195 222 134 99 93 341 322 132 115 99 93 83 76 72 64 58 53
348 346 8 26 32 20 346 306 346 340 330 52 111 121 244 236 251 221 224 225 78 55 301 36 16 335 12 80 69 9 24 33 357 354 24 25 19 17 15 11 14 6 228 188 118 113 82 44 58 56 19 358 327 305 244 147 327 12 76 327 295 264 231 162 243 204 217 245 241 191 182 203 218 176 58 51 16 22 86 113 111 102 90 82 75 67 60 54
341 339 26 24 28 24 353 316 328 331 318 122 123 271 252 176 215 209 231 245 107 17 49 44 7 13 49 69 50 355 359 24 8 23 44 47 49 38 40 32 355 289 150 44 164 138 85 40 20 6 39 24 347 303 80 75 35 125 176 212 238 198 156 186 210 198 221 248 271 166 187 206 210 83 59 56 42 43 70 94 104 103 96 88 81 72 64 55
331 349 40 9 8 12 358 333 317 318 154 136 215 254 235 185 226 136 48 354 286 5 52 83 40 28 11 64 39 347 348 14 352 9 59 85 84 70 63 45 5 326 104 339 287 155 120 33 9 353 12 11 356 355 67 39 359 333 176 163 205 213 223 218 205 206 234 247 302 179 193 201 138 79 62 64 64 59 68 80 88 95 94 91 85 78 69 61
327 102 74 350 357 359 352 337 302 206 163 221 252 216 72 92 209 139 69 32 314 203 72 107 115 45 33 76 34 314 33 50 359 10 21 53 70 59 42 30 16 4 315 329 357 13 194 201 4 3 343 349 15 42 33 331 315 307 303 134 229 295 269 235 193 185 295 305 289 210 195 227 170 93 72 76 79 73 76 83 86 87 88 87 81 74 66 61
114 100 98 2 355 342 334 328 219 165 183 252 248 177 77 127 133 39 88 94 257 178 108 107 229 96 68 79 333 308 25 71 65 49 30 34 57 31 1 7 14 10 338 10 22 352 118 128 6 19 16 4 19 28 356 330 291 302 329 187 354 12 327 279 286 241 268 356 303 225 136 40 85 108 106 99 91 90 95 97 97 93 88 81 73 67 63 57
126 100 85 31 348 334 334 332 177 177 227 263 245 188 177 88 58 28 59 57 305 140 145 187 264 113 125 105 65 4 357 359 132 94 49 64 72 35 12 4 12 14 8 27 22 355 105 96 338 178 70 41 31 3 7 10 274 295 357 11 300 302 142 290 292 252 186 257 239 206 176 98 114 115 105 108 105 105 108 103 101 94 84 78 69 64 62 58
160 182 101 24 353 343 336 330 168 188 251 272 36 75 136 61 4 19 22 325 337 47 200 198 284 39 143 121 91 3 348 351 230 179 103 124 81 21 8 354 2 10 0 343 51 86 78 320 334 333 75 52 14 324 38 27 6 338 349 345 318 274 109 324 281 287 259 258 237 204 204 184 165 146 69 127 127 115 115 108 102 97 87 81 74 69 67 61
224 207 140 12 359 349 345 24 159 217 260 54 78 92 132 37 26 41 19 333 341 283 262 218 57 289 9 106 104 353 341 354 338 21 99 136 20 20 14 342 338 348 342 322 298 25 2 349 344 327 328 49 16 353 73 9 3 20 328 336 359 45 23 312 218 275 271 255 261 229 218 201 103 73 55 163 144 121 121 117 109 105 96 89 84 78 71 63
241 206 168 8 1 1 14 10 245 248 269 104 98 109 117 68 62 51 12 338 358 322 295 76 72 41 21 45 131 19 355 19 5 11 73 38 11 25 17 347 322 333 332 328 346 340 316 161 149 308 302 335 31 28 28 343 347 4 5 1 21 7 299 301 197 356 291 255 279 253 223 154 44 20 338 153 135 126 134 127 110 100 93 93 95 89 80 71
259 201 57 6 4 31 23 357 304 21 40 63 73 89 118 104 84 58 25 5 15 343 353 47 64 77 70 52 97 76 27 25 20 34 41 22 52 49 20 353 323 328 322 325 22 1 324 92 147 312 327 345 59 38 33 13 345 354 18 23 6 333 311 331 297 83 22 275 285 277 248 203 59 352 339 108 123 131 142 122 108 105 96 92 91 88 89 82
287 172 22 0 359 128 10 17 40 43 72 87 63 92 124 104 89 66 34 20 39 52 37 44 38 57 100 92 76 84 64 41 35 49 50 25 38 62 29 355 322 319 313 325 37 14 350 35 349 325 358 50 85 35 15 25 17 20 23 12 1 355 1 310 271 45 23 313 273 284 274 284 73 330 342 73 110 123 130 120 117 119 108 99 88 77 78 75
291 174 3 358 0 259 1 54 51 26 88 92 39 65 86 86 72 41 23 16 26 53 56 53 36 36 53 62 66 71 64 50 16 31 67 51 36 34 360 336 307 281 295 11 51 26 3 20 308 326 44 80 101 85 25 21 45 71 54 20 16 18 40 96 244 0 4 327 37 122 246 274 337 309 352 43 66 86 108 118 124 122 112 109 104 95 89 82
356 126 11 359 358 340 33 84 70 37 64 29 352 34 46 60 44 25 27 21 12 27 51 52 40 38 33 38 64 72 60 41 11 44 96 99 54 38 357 337 325 312 335 16 35 4 1 22 223 149 88 84 96 86 38 17 50 78 55 27 38 49 75 130 207 206 309 291 345 269 254 261 310 301 14 54 58 73 92 109 118 122 123 123 119 117 109 96
45 99 32 9 12 3 11 85 113 101 94 91 84 69 62 63 41 32 44 33 21 41 65 45 31 55 59 43 63 68 46 43 10 27 89 113 78 37 4 346 351 14 30 17 333 325 9 79 39 122 143 112 80 42 7 357 18 57 70 57 71 78 64 273 226 133 254 235 175 209 257 191 304 312 22 76 78 93 103 113 125 132 135 135 130 124 114 102
71 124 114 28 31 47 61 38 118 131 128 105 87 70 75 80 50 43 62 56 40 43 74 76 59 82 95 76 62 42 18 43 60 11 66 89 88 37 358 343 354 35 56 20 0 346 22 48 30 132 185 236 204 151 198 338 349 16 100 97 100 97 103 286 3 66 227 274 149 222 257 284 319 327 9 122 128 130 126 121 134 140 134 138 135 123 116 103
280 11 139 47 31 52 63 31 85 122 136 127 102 52 61 97 90 44 43 51 41 32 52 73 64 77 81 71 67 40 14 30 71 95 84 89 99 50 340 339 351 15 44 22 10 9 87 51 43 96 136 164 161 146 35 14 342 286 305 319 308 319 133 128 98 218 195 359 317 252 331 359 325 328 291 215 186 185 170 152 163 167 143 141 137 125 116 104
288 10 79 87 43 65 65 45 66 102 124 128 120 106 86 106 129 35 19 33 45 36 51 53 34 57 87 94 98 62 12 24 49 64 58 61 78 13 336 1 3 10 34 20 1 358 123 54 19 65 97 109 143 125 24 30 288 265 287 296 296 309 302 167 194 233 281 356 282 250 13 336 280 283 276 237 211 214 204 188 191 186 160 142 129 122 119 108
16 93 73 280 86 67 51 69 80 76 75 76 89 125 103 100 103 46 40 79 46 18 46 58 35 43 68 103 119 108 60 40 45 44 339 76 97 351 342 355 3 23 40 22 0 25 100 42 318 35 55 348 249 154 88 57 265 259 269 277 279 288 283 256 237 243 254 262 253 273 308 291 283 300 287 259 239 236 226 210 192 160 136 128 121 126 131 121
72 97 67 350 80 71 45 89 103 90 81 87 96 104 108 114 109 46 28 75 41 354 18 97 66 30 22 3 66 124 159 128 93 224 193 119 146 174 84 5 15 37 31 24 27 27 83 107 140 164 307 304 305 285 221 252 276 272 266 265 267 266 264 263 261 255 253 256 263 281 284 278 281 290 286 282 273 264 256 223 167 137 129 129 134 152 153 141
101 125 129 93 87 72 31 74 108 102 89 84 79 71 91 114 126 112 16 34 75 346 20 111 123 58 33 38 62 96 159 157 141 174 161 131 159 226 93 86 77 59 25 29 24 336 26 99 127 141 343 315 331 323 271 259 276 279 274 262 253 255 258 257 257 256 257 262 270 275 276 280 285 281 306 349 18 12 359 17 118 138 149 149 159 179 166 151
72 109 139 118 95 81 51 50 75 109 104 69 110 164 139 119 132 126 73 35 69 33 35 122 132 100 62 69 74 83 69 58 90 109 113 112 114 98 86 34 129 97 55 45 358 339 30 91 128 88 77 277 317 328 291 289 292 280 273 264 244 233 238 241 238 237 238 251 266 269 269 279 289 116 34 6 38 27 6 32 99 179 171 163 177 185 168 154
97 109 154 113 88 72 194 129 358 68 98 46 80 134 126 128 139 120 95 63 55 51 29 126 128 104 77 82 84 89 84 73 82 90 92 93 86 81 80 66 57 60 76 112 1 1 42 73 105 98 136 252 276 274 273 312 323 282 262 254 225 211 220 228 230 234 232 237 252 257 258 275 296 149 292 288 215 229 256 171 282 231 157 151 168 168 149 135